N7LK Weather Reports


time (UTC)temp
C
wind
direction
speed
KPH
gust
KPH
rain 1hr
cm
rain 24hr
cm
rain mn
cm
humidity
%
barometer
mb
20260906161335 34 230 3.2 9.7 0.00 0.00 0.00 32 1010.1
20260906160342 34 108 0.0 3.2 0.00 0.00 0.00 34 1010.1
20260906155332 33 148 0.0 3.2 0.00 0.00 0.00 34 1010.2
20260906154341 33 360 0.0 3.2 0.00 0.00 0.00 36 1010.2
20260906153329 32 360 0.0 3.2 0.00 0.00 0.00 37 1010.1
20260906152335 32 306 0.0 3.2 0.00 0.00 0.00 39 1010.1
20260906151346 31 295 0.0 3.2 0.00 0.00 0.00 39 1010.2
20260906150329 31 321 0.0 3.2 0.00 0.00 0.00 41 1010.1
20260906145336 30 323 0.0 3.2 0.00 0.00 0.00 43 1010.1
20260906144341 30 17 0.0 3.2 0.00 0.00 0.00 43 1010.0
20260906143333 29 23 1.6 4.8 0.00 0.00 0.00 44 1009.9
20260906142339 28 20 0.0 4.8 0.00 0.00 0.00 46 1009.8
20260906141327 27 360 1.6 3.2 0.00 0.00 0.00 49 1009.7
20260906140333 27 11 0.0 0.0 0.00 0.00 0.00 53 1009.6
20260906135405 26 336 0.0 0.0 0.00 0.00 0.00 53 1009.5
20260906134351 26 336 0.0 0.0 0.00 0.00 0.00 54 1009.3
20260906133337 26 336 0.0 0.0 0.00 0.00 0.00 53 1009.2
20260906132344 26 336 0.0 0.0 0.00 0.00 0.00 52 1009.2
20260906131335 26 336 0.0 0.0 0.00 0.00 0.00 52 1009.1
20260906130342 26 336 0.0 0.0 0.00 0.00 0.00 52 1009.0
20260906125329 26 336 0.0 0.0 0.00 0.00 0.00 53 1008.8
20260906124335 27 336 0.0 0.0 0.00 0.00 0.00 51 1008.9
20260906123327 27 336 0.0 0.0 0.00 0.00 0.00 50 1008.9
20260906122332 27 336 0.0 0.0 0.00 0.00 0.00 51 1008.7
20260906121339 27 336 0.0 0.0 0.00 0.00 0.00 51 1008.8
20260906120326 27 336 0.0 0.0 0.00 0.00 0.00 50 1008.8
20260906115337 27 336 0.0 0.0 0.00 0.00 0.00 50 1008.7
20260906114344 27 336 0.0 0.0 0.00 0.00 0.00 49 1008.8
20260906113330 27 336 0.0 0.0 0.00 0.00 0.00 49 1008.8
20260906112336 27 336 0.0 0.0 0.00 0.00 0.00 48 1008.9
20260906111347 28 336 0.0 0.0 0.00 0.00 0.00 48 1008.8
20260906110332 28 336 0.0 0.0 0.00 0.00 0.00 47 1008.7
20260906105339 27 235 0.0 0.0 0.00 0.00 0.00 47 1008.7
20260906104327 27 235 0.0 0.0 0.00 0.00 0.00 46 1008.7
20260906103340 27 329 0.0 0.0 0.00 0.00 0.00 47 1008.6
20260906102327 28 329 0.0 0.0 0.00 0.00 0.00 46 1008.6
20260906101353 28 329 0.0 0.0 0.00 0.00 0.00 46 1008.6
20260906100339 28 329 0.0 0.0 0.00 0.00 0.00 46 1008.6
20260906095327 28 329 0.0 0.0 0.00 0.00 0.00 45 1008.6
20260906094352 28 329 0.0 0.0 0.00 0.00 0.00 45 1008.7
20260906093338 28 329 0.0 0.0 0.00 0.00 0.00 45 1008.7
20260906092405 28 329 0.0 0.0 0.00 0.00 0.00 44 1008.6
20260906091330 29 329 0.0 0.0 0.00 0.00 0.00 44 1008.6
20260906090401 29 329 0.0 0.0 0.00 0.00 0.00 44 1008.6
20260906085327 30 329 0.0 0.0 0.00 0.00 0.00 43 1008.6
20260906084335 30 329 0.0 0.0 0.00 0.00 0.00 42 1008.7
20260906083342 30 329 0.0 0.0 0.00 0.00 0.00 42 1008.8
20260906082333 30 329 0.0 0.0 0.00 0.00 0.00 42 1008.8
20260906081340 30 329 0.0 0.0 0.00 0.00 0.00 41 1008.9
20260906080327 30 329 0.0 0.0 0.00 0.00 0.00 42 1009.0
20260906075333 30 302 0.0 0.0 0.00 0.00 0.00 42 1009.1
20260906074343 30 302 0.0 0.0 0.00 0.00 0.00 41 1009.1
20260906073329 30 302 0.0 0.0 0.00 0.00 0.00 41 1009.1
20260906072357 30 302 0.0 0.0 0.00 0.00 0.00 40 1009.1
20260906071343 30 302 0.0 0.0 0.00 0.00 0.00 40 1009.1
20260906070335 31 302 0.0 0.0 0.00 0.00 0.00 39 1009.3
20260906065341 31 302 0.0 0.0 0.00 0.00 0.00 39 1009.2
20260906064327 31 302 0.0 0.0 0.00 0.00 0.00 40 1009.2
20260906063334 31 302 0.0 0.0 0.00 0.00 0.00 40 1009.2
20260906062343 31 302 0.0 0.0 0.00 0.00 0.00 38 1009.1
20260906061329 31 289 0.0 0.0 0.00 0.00 0.00 37 1009.2
20260906060336 31 290 0.0 0.0 0.00 0.00 0.00 37 1009.2
20260906055342 32 290 0.0 0.0 0.00 0.00 0.00 37 1009.3
20260906054334 32 290 0.0 0.0 0.00 0.00 0.00 35 1009.3
20260906053341 32 290 0.0 0.0 0.00 0.00 0.00 36 1009.3
20260906052328 32 18 0.0 0.0 0.00 0.00 0.00 36 1009.4
20260906051335 32 18 0.0 0.0 0.00 0.00 0.00 35 1009.4
20260906050326 32 18 0.0 0.0 0.00 0.00 0.00 34 1009.5
20260906045333 32 18 0.0 0.0 0.00 0.00 0.00 35 1009.4
20260906044400 32 346 0.0 0.0 0.00 0.00 0.00 35 1009.4
20260906043327 32 319 0.0 0.0 0.00 0.00 0.00 35 1009.3
20260906042400 32 338 0.0 0.0 0.00 0.00 0.00 34 1009.3
20260906041327 33 339 0.0 0.0 0.00 0.00 0.00 33 1009.3
20260906040332 33 338 0.0 0.0 0.00 0.00 0.00 33 1009.4
20260906035338 33 338 0.0 0.0 0.00 0.00 0.00 32 1009.3
20260906034330 33 339 0.0 0.0 0.00 0.00 0.00 31 1009.2
20260906033337 33 339 0.0 0.0 0.00 0.00 0.00 31 1009.1
20260906032343 34 309 0.0 0.0 0.00 0.00 0.00 31 1009.0
20260906031351 34 336 0.0 1.6 0.00 0.00 0.00 30 1008.9
20260906030341 34 344 1.6 4.8 0.00 0.00 0.00 30 1008.9
20260906025328 34 308 1.6 6.4 0.00 0.00 0.00 29 1008.8
20260906024335 35 290 1.6 12.9 0.00 0.00 0.00 29 1008.8
20260906023342 35 296 3.2 6.4 0.00 0.00 0.00 29 1008.7
20260906022333 35 323 3.2 9.7 0.00 0.00 0.00 28 1008.6
20260906021340 35 311 6.4 9.7 0.00 0.00 0.00 28 1008.6
20260906020328 35 336 3.2 14.5 0.00 0.00 0.00 28 1008.6
20260906015333 35 300 4.8 12.9 0.00 0.00 0.00 27 1008.6
20260906014344 36 309 4.8 14.5 0.00 0.00 0.00 27 1008.6
20260906013330 36 304 4.8 16.1 0.00 0.00 0.00 27 1008.6
20260906012339 36 315 9.7 16.1 0.00 0.00 0.00 26 1008.7
20260906011326 36 304 4.8 14.5 0.00 0.00 0.00 26 1008.7
20260906010338 36 327 8.0 17.7 0.00 0.00 0.00 25 1008.8
20260906005403 36 283 3.2 12.9 0.00 0.00 0.00 25 1008.7
20260906004328 37 252 4.8 12.9 0.00 0.00 0.00 25 1008.7
20260906003335 37 270 3.2 11.3 0.00 0.00 0.00 25 1008.7
20260906002327 37 298 8.0 14.5 0.00 0.00 0.00 25 1008.7
20260906001333 37 256 3.2 17.7 0.00 0.00 0.00 25 1008.6
20260906000341 37 277 6.4 14.5 0.00 0.00 0.00 24 1008.6
20260905235327 37 257 8.0 16.1 0.00 0.00 0.00 24 1008.6
20260905234339 38 308 4.8 16.1 0.00 0.00 0.00 23 1008.6
20260905233406 38 327 8.0 20.9 0.00 0.00 0.00 24 1008.7
20260905232332 38 285 9.7 19.3 0.00 0.00 0.00 24 1008.7
20260905231338 38 261 9.7 22.5 0.00 0.00 0.00 23 1008.7
20260905230327 38 296 8.0 27.4 0.00 0.00 0.00 23 1008.7
20260905225332 38 340 6.4 19.3 0.00 0.00 0.00 24 1008.8
20260905224340 38 11 8.0 14.5 0.00 0.00 0.00 24 1008.7
20260905223328 38 355 6.4 17.7 0.00 0.00 0.00 24 1008.9
20260905222339 38 292 6.4 16.1 0.00 0.00 0.00 25 1008.9
20260905221346 38 277 9.7 27.4 0.00 0.00 0.00 25 1008.9
20260905220353 38 268 3.2 9.7 0.00 0.00 0.00 24 1009.1
20260905215339 38 225 8.0 17.7 0.00 0.00 0.00 25 1009.3
20260905214331 38 282 6.4 16.1 0.00 0.00 0.00 26 1009.4
20260905213337 38 279 4.8 14.5 0.00 0.00 0.00 26 1009.6
20260905212344 38 229 9.7 20.9 0.00 0.00 0.00 26 1009.6
20260905211351 39 305 4.8 16.1 0.00 0.00 0.00 26 1009.7
20260905210337 39 234 1.6 14.5 0.00 0.00 0.00 26 1009.9
20260905205328 38 312 6.4 16.1 0.00 0.00 0.00 26 1010.0
20260905204335 39 250 8.0 14.5 0.00 0.00 0.00 26 1010.1
20260905203343 39 331 1.6 4.8 0.00 0.00 0.00 26 1010.2
20260905202331 38 49 1.6 8.0 0.00 0.00 0.00 27 1010.5
20260905201342 38 318 3.2 9.7 0.00 0.00 0.00 27 1010.5
20260905200329 38 238 3.2 12.9 0.00 0.00 0.00 27 1010.7
20260905195335 38 146 4.8 9.7 0.00 0.00 0.00 28 1010.7
20260905194403 37 55 3.2 6.4 0.00 0.00 0.00 29 1010.8
20260905193353 37 267 3.2 14.5 0.00 0.00 0.00 28 1010.9
20260905192340 37 238 3.2 9.7 0.00 0.00 0.00 29 1011.1
20260905191327 37 350 1.6 9.7 0.00 0.00 0.00 28 1011.3
20260905190333 37 202 6.4 12.9 0.00 0.00 0.00 29 1011.5
20260905185400 37 264 1.6 14.5 0.00 0.00 0.00 29 1011.7
20260905184329 36 139 1.6 6.4 0.00 0.00 0.00 30 1011.9
20260905183335 36 157 3.2 11.3 0.00 0.00 0.00 31 1012.0
20260905182342 35 150 6.4 11.3 0.00 0.00 0.00 31 1012.0
20260905181348 35 287 1.6 11.3 0.00 0.00 0.00 30 1012.1
20260905180338 35 154 4.8 9.7 0.00 0.00 0.00 30 1012.1
20260905175344 35 189 3.2 8.0 0.00 0.00 0.00 31 1012.2
20260905174332 35 163 3.2 9.7 0.00 0.00 0.00 31 1012.1
20260905173339 35 221 3.2 6.4 0.00 0.00 0.00 31 1012.2
20260905172350 35 194 1.6 8.0 0.00 0.00 0.00 32 1012.1
20260905171334 35 35 3.2 4.8 0.00 0.00 0.00 31 1012.1
20260905170341 35 42 1.6 6.4 0.00 0.00 0.00 31 1012.1
20260905165328 34 5 1.6 4.8 0.00 0.00 0.00 32 1012.0
20260905164339 34 53 3.2 6.4 0.00 0.00 0.00 32 1012.0
20260905163345 34 24 0.0 3.2 0.00 0.00 0.00 33 1012.0
20260905162332 33 80 0.0 4.8 0.00 0.00 0.00 33 1012.1